Regional Weather Roundup
Issued by NWS Charleston, SC

Current Version | Previous Version | Graphics & Text | Print | Product List | Glossary On
Versions: 1 2 3 4 5 6 7 8 9 10 11 12 13 14 15 16 17 18 19 20 21 22 23 24 25 26 27 28 29 30 31 32 33 34 35 36 37 38 39 40 41 42 43 44 45 46 47 48 49 50
000
ASUS42 KCHS 230212
RWRCHS

REGIONAL WEATHER ROUNDUP
NATIONAL WEATHER SERVICE CHARLESTON SC
1000 PM EDT THU JUN 22 2017

NOTE: "FAIR" INDICATES FEW OR NO CLOUDS BELOW 12,000 FEET WITH NO
SIGNIFICANT WEATHER AND/OR OBSTRUCTIONS TO VISIBILITY.

NOT ALL STATIONS ARE QUALITY CONTROLLED. USE DATA WITH CAUTION...
ESPECIALLY DEWPOINT OBSERVATIONS.

SCZ027-030-031-034>040-042>050-230300-
...SOUTHEAST SOUTH CAROLINA...

CITY           SKY/WX    TMP DP  RH WIND       PRES   REMARKS
N CHARLESTON   PTCLDY    79  75  87 S8        30.07F
WATERFRONT PRK   N/A     81  78  91 S6        30.05F
JOHNS ISLAND   MOCLDY    81  79  94 S6        30.08R
PINOPOLIS        N/A     75  73  94 VRB3      30.00S
MONCKS CORNER  FAIR      72  72 100 CALM      30.08R
SUMMERVILLE    FAIR      73  73 100 CALM      30.08S
BEAUFORT MCAS  MOCLDY    82  78  88 S6        30.07R HX  91
BEAUFORT ARPT  FAIR      81  77  89 S6        30.07R
HILTON HEAD IS PTCLDY    81  77  89 S7G13     30.08S
WALTERBORO     MOCLDY    77  77 100 SE5       30.08S FOG
ALLENDALE      FAIR      79  77  94 SE5       30.05S

...SOUTHERN MIDLANDS AND PEE DEE...

CITY           SKY/WX    TMP DP  RH WIND       PRES   REMARKS
GEORGETOWN     FAIR      77  75  94 CALM      30.08F
KINGSTREE      FAIR      73  72  94 CALM      30.07S
ORANGEBURG     MOCLDY    76  74  93 SE3       30.06F
BARNWELL       FAIR      81  77  89 SE8       30.06R
AIKEN          FAIR      79  73  83 SE7       30.08F
MANNING        FAIR      73  73 100 SE5       30.07S
COLUMBIA       CLOUDY    78  72  81 E6        30.05S
SUMTER         PTCLDY    75  72  90 SE3       30.04F
FLORENCE       CLOUDY    77  74  90 S5        30.07S
MYRTLE BEACH   PTCLDY    81  77  89 SW8       30.09S
N MYRTLE BEACH MOCLDY    80  78  94 S9        30.08R

$$

GAZ063-065-086>088-099>101-113>116-118-119-134>141-150-230300-
...SOUTHEAST GEORGIA...

CITY           SKY/WX    TMP DP  RH WIND       PRES   REMARKS
SAVANNAH ARPT  MOCLDY    81  74  79 S7        30.07R
HUNTER AAF     CLOUDY    81  77  86 CALM      30.04R
FORT STEWART   CLOUDY    81  75  83 SE3       30.05R
STATESBORO     MOCLDY    80  79  96 CALM      30.06R
SYLVANIA       PTCLDY    80  80  98 CALM      30.07R
CLAXTON        FAIR     N/A N/A N/A CALM      30.06R

...CSRA...CENTRAL AND FAR SOUTHEAST GEORGIA...

CITY           SKY/WX    TMP DP  RH WIND       PRES   REMARKS
THOMSON        MOCLDY    80  74  82 CALM      30.09R
AUGUSTA-BUSH   CLOUDY    83  77  82 SE8       30.03R HX  92
AUGUSTA-DANIEL MOCLDY    83  74  74 SE9       30.05R
SWAINSBORO     FAIR      81  75  83 S6        30.06R
VIDALIA        PTCLDY    77  75  94 CALM      30.06R
EASTMAN        CLOUDY    84  67  57 S10       30.06R
HAZLEHURST     FAIR      81  79  94 CALM      30.05R HX  90
ALMA           MOCLDY    79  75  87 SE6       30.05R
WAYCROSS       NOT AVBL
JESUP          FAIR      77  73  88 SE3       30.06S
BAXLEY         FAIR      77  77 100 CALM      30.06R
BRUNSWICK      CLOUDY    82  79  89 SE10      30.07R HX  93
SAINT SIMONS   CLOUDY    82  77  84 S13G18    30.06S HX  90

$$

SCZ027-028-034-036>038-045-046-048>050-GAZ119-141-230300-
...LAKE AND SUPPLEMENTAL COASTAL OBSERVATIONS...

STATION/POSITION TIME  TEMP    WIND        PRES    WAVE   SWELL
                       AIR SEA DIR/SP/G            HT/PER HT/PER/DIR
                 (UTC) (F)     (DEG/KT/KT) (MB)    (FT/S) (FT/S/D)
WINYAH BAY       NOT AVBL
LAKE MURRAY      0120   80     120/  3/  9 1016.6S
ACE BASIN NERRS  0045   82        CALM     1019.0
FORT PULASKI     0142   81 84  170/  6/  9 1018.6R
SAPELO ISLAND    0100   82     160/ 11     1018.0

$$

ANZ835-935-AMZ111-154-330-350-352-354-370-450-454-472-230300-
...C-MAN AND BUOY OBSERVATIONS...

STATION/POSITION TIME  TEMP    WIND        PRES    WAVE   SWELL
                       AIR SEA DIR/SP/G            HT/PER HT/PER/DIR
                 (UTC) (F)     (DEG/KT/KT) (MB)    (FT/S) (FT/S/D)
BUOY 41004       0150   81 81  180/ 10/ 14 1018.1F   3/ 7   3/140/ 7
BUOY 41008       0150   81 81  160/ 14/ 16 1017.7R   3/ 8   2/120/ 8
FOLLY BEACH CMAN 0100   81     180/ 10/ 12 1019.1F
CAPERS NEARSHORE 0108   86 83  200/ 10/ 14 1018.4R
FRIPP NEARSHORE  0108   82 83  180/ 12/ 16 1017.6F


STATION/POSITION TIME  TEMP    WIND        PRES    WAVE   SWELL
                       AIR SEA DIR/SP/G            HT/PER HT/PER/DIR
                 (UTC) (F)     (DEG/KT/KT) (MB)    (FT/S) (FT/S/D)
5E ST. MARYS GA  0130      81                N/A     3/ 9
FRYING PAN BUOY  0150   82 82  220/ 10/ 12 1018.9R   3/ 8   3/130/ 8
BUOY 41025       0150   80 80  230/ 12/ 14 1017.5R   3/ 8   2/180/ 8
CAPE LOOKOUT NC  0100   78     210/  6/  8 1017.5R
BUOY 41002       0150   80 82  210/ 10/ 12 1020.5R   4/ 9   3/ 90/ 9
BUOY 41010       0150   82 83  120/ 10/ 14 1019.5R   5/ 8   5/130/ 8
ST AUGUSTINE FL  0200   79 79  160/ 13/ 14 1019.1R


$$



USA.gov is the U.S. government's official web portal to all federal, state and local government web resources and services.